EZY195 EGPH-EGCC

Flight info

Callsign EZY195
Flight time 1h 4m
Altitude 25000
Route GOSAM P600 FENIK L612 LAKEY
Aircraft A320/M-SDE3FGHIRWY/LB1

Departure

Time 2026-04-20 17:55
Airport Edinburgh Airport (EGPH)

Arrival

Time 2026-04-20 18:59
Airport Manchester Airport (EGCC)
Time Latitude Longitude Altitude Speed Heading
2026-04-20 16:59 55.94963 -3.36284 106 ft 0 kts 149°
2026-04-20 17:27 55.94964 -3.36284 107 ft 0 kts 149°
2026-04-20 17:34 55.94964 -3.36285 107 ft 0 kts 155°
2026-04-20 17:34 55.94968 -3.36290 80 ft 2 kts 182°
2026-04-20 17:34 55.94978 -3.36288 79 ft 1 kts 232°
2026-04-20 17:37 55.94978 -3.36289 107 ft 0 kts 235°
2026-04-20 17:45 55.94970 -3.36320 106 ft 15 kts 252°
2026-04-20 17:45 55.94928 -3.36536 106 ft 14 kts 249°
2026-04-20 17:45 55.94909 -3.36665 106 ft 10 kts 256°
2026-04-20 17:46 55.94898 -3.36780 106 ft 9 kts 291°
2026-04-20 17:46 55.94921 -3.36877 105 ft 9 kts 271°
2026-04-20 17:46 55.94898 -3.36975 104 ft 8 kts 238°
2026-04-20 17:46 55.94872 -3.37050 105 ft 6 kts 238°
2026-04-20 17:47 55.94852 -3.37106 105 ft 6 kts 238°
2026-04-20 17:47 55.94813 -3.37235 105 ft 18 kts 245°
2026-04-20 17:47 55.94744 -3.37454 110 ft 23 kts 234°
2026-04-20 17:47 55.94647 -3.37725 112 ft 29 kts 238°
2026-04-20 17:48 55.94541 -3.38020 112 ft 31 kts 240°
2026-04-20 17:48 55.94420 -3.38382 113 ft 31 kts 238°
2026-04-20 17:48 55.94331 -3.38644 116 ft 16 kts 240°
2026-04-20 17:48 55.94288 -3.38785 118 ft 6 kts 252°
2026-04-20 17:49 55.94289 -3.38833 120 ft 2 kts 287°
2026-04-20 17:49 55.94315 -3.38891 118 ft 7 kts 321°
2026-04-20 17:49 55.94321 -3.38900 120 ft 0 kts 321°
2026-04-20 17:52 55.94322 -3.38901 120 ft 1 kts 321°
2026-04-20 17:52 55.94391 -3.38973 117 ft 15 kts 339°
2026-04-20 17:53 55.94403 -3.38980 115 ft 0 kts 345°
2026-04-20 17:53 55.94427 -3.38941 116 ft 13 kts 57°
2026-04-20 17:53 55.94490 -3.38739 114 ft 21 kts 59°
2026-04-20 17:53 55.94568 -3.38511 114 ft 22 kts 58°
2026-04-20 17:54 55.94706 -3.38117 115 ft 70 kts 58°
2026-04-20 17:54 55.95084 -3.37006 110 ft 136 kts 58°
2026-04-20 17:54 55.95652 -3.35311 204 ft 179 kts 59°
2026-04-20 17:54 55.96330 -3.33268 541 ft 208 kts 59°
2026-04-20 17:55 55.97138 -3.30833 972 ft 241 kts 60°
2026-04-20 17:55 55.98023 -3.28164 1493 ft 265 kts 60°
2026-04-20 17:55 55.99003 -3.25202 2204 ft 281 kts 60°
2026-04-20 17:55 56.00040 -3.22066 2801 ft 305 kts 60°
2026-04-20 17:56 56.01137 -3.18704 3360 ft 308 kts 60°
2026-04-20 17:56 56.02127 -3.15657 3916 ft 266 kts 60°
2026-04-20 17:56 56.02991 -3.12994 4476 ft 236 kts 60°
2026-04-20 17:56 56.03812 -3.10466 5068 ft 235 kts 60°
2026-04-20 17:57 56.04631 -3.07908 5631 ft 239 kts 60°
2026-04-20 17:57 56.05458 -3.05311 6210 ft 241 kts 60°
2026-04-20 17:57 56.06290 -3.02699 6802 ft 243 kts 60°
2026-04-20 17:57 56.07131 -3.00050 7355 ft 247 kts 61°
2026-04-20 17:58 56.07712 -2.98240 7732 ft 248 kts 61°
2026-04-20 17:58 56.08586 -2.95579 8320 ft 248 kts 61°
2026-04-20 17:58 56.09477 -2.92911 8889 ft 251 kts 60°
2026-04-20 17:58 56.10382 -2.90211 9482 ft 254 kts 61°
2026-04-20 17:59 56.11305 -2.87498 10090 ft 256 kts 60°
2026-04-20 17:59 56.12245 -2.84757 10654 ft 259 kts 61°
2026-04-20 17:59 56.13192 -2.81998 11202 ft 261 kts 61°
2026-04-20 17:59 56.14130 -2.79255 11760 ft 263 kts 60°
2026-04-20 18:00 56.15103 -2.76409 12346 ft 265 kts 61°
2026-04-20 18:00 56.16056 -2.73621 12914 ft 267 kts 61°
2026-04-20 18:00 56.17031 -2.70767 13528 ft 269 kts 61°
2026-04-20 18:00 56.18016 -2.67883 14137 ft 272 kts 61°
2026-04-20 18:01 56.19007 -2.64976 14681 ft 274 kts 61°
2026-04-20 18:01 56.20004 -2.62042 15237 ft 277 kts 61°
2026-04-20 18:01 56.21009 -2.59078 15804 ft 279 kts 61°
2026-04-20 18:01 56.22020 -2.56092 16380 ft 281 kts 61°
2026-04-20 18:02 56.23046 -2.53087 16966 ft 284 kts 58°
2026-04-20 18:02 56.24431 -2.50530 17573 ft 291 kts 36°
2026-04-20 18:02 56.26329 -2.49167 18183 ft 300 kts 10°
2026-04-20 18:02 56.28429 -2.49413 18791 ft 310 kts 344°
2026-04-20 18:03 56.30330 -2.51395 19334 ft 319 kts 316°
2026-04-20 18:03 56.31534 -2.54687 19876 ft 324 kts 288°
2026-04-20 18:03 56.31791 -2.58675 20446 ft 324 kts 259°
2026-04-20 18:03 56.31066 -2.62551 21026 ft 322 kts 242°
2026-04-20 18:04 56.30092 -2.66209 21615 ft 326 kts 241°
2026-04-20 18:04 56.29133 -2.69745 22189 ft 328 kts 240°
2026-04-20 18:04 56.28114 -2.73497 22806 ft 330 kts 240°
2026-04-20 18:04 56.27115 -2.77172 23423 ft 332 kts 241°
2026-04-20 18:05 56.25339 -2.83717 24449 ft 334 kts 241°
2026-04-20 18:05 56.24413 -2.87141 24929 ft 334 kts 242°
2026-04-20 18:05 56.23390 -2.90920 25291 ft 340 kts 242°
2026-04-20 18:06 56.22349 -2.94759 25372 ft 342 kts 242°
2026-04-20 18:06 56.21301 -2.98608 25379 ft 343 kts 242°
2026-04-20 18:06 56.20254 -3.02457 25383 ft 343 kts 242°
2026-04-20 18:06 56.19206 -3.06301 25384 ft 343 kts 242°
2026-04-20 18:07 56.18158 -3.10145 25383 ft 343 kts 242°
2026-04-20 18:07 56.17193 -3.13676 25389 ft 343 kts 242°
2026-04-20 18:07 56.16139 -3.17516 25388 ft 343 kts 242°
2026-04-20 18:07 56.15085 -3.21346 25381 ft 343 kts 242°
2026-04-20 18:08 56.14030 -3.25181 25381 ft 343 kts 242°
2026-04-20 18:08 56.12976 -3.29006 25381 ft 343 kts 242°
2026-04-20 18:08 56.11922 -3.32832 25383 ft 343 kts 242°
2026-04-20 18:08 56.10864 -3.36670 25384 ft 343 kts 242°
2026-04-20 18:09 56.09806 -3.40505 25380 ft 343 kts 242°
2026-04-20 18:09 56.08747 -3.44323 25395 ft 343 kts 241°
2026-04-20 18:09 56.07689 -3.48129 25394 ft 342 kts 240°
2026-04-20 18:09 56.06626 -3.51940 25393 ft 342 kts 241°
2026-04-20 18:10 56.05565 -3.55743 25399 ft 341 kts 241°
2026-04-20 18:10 56.04506 -3.59540 25394 ft 341 kts 241°
2026-04-20 18:10 56.03448 -3.63337 25389 ft 341 kts 241°
2026-04-20 18:10 56.02388 -3.67131 25387 ft 340 kts 241°
2026-04-20 18:11 56.01333 -3.70900 25386 ft 340 kts 241°
2026-04-20 18:11 56.00266 -3.74701 25382 ft 349 kts 241°
2026-04-20 18:11 55.99141 -3.78684 25372 ft 368 kts 241°
2026-04-20 18:11 55.97961 -3.82854 25369 ft 385 kts 241°
2026-04-20 18:12 55.96727 -3.87206 25365 ft 401 kts 241°
2026-04-20 18:12 55.95441 -3.91732 25360 ft 415 kts 241°
2026-04-20 18:12 55.94114 -3.96399 25375 ft 428 kts 241°
2026-04-20 18:12 55.92679 -4.01119 25355 ft 437 kts 233°
2026-04-20 18:13 55.90625 -4.05069 25359 ft 436 kts 217°
2026-04-20 18:13 55.88193 -4.08319 25354 ft 436 kts 214°
2026-04-20 18:13 55.85739 -4.11479 25355 ft 437 kts 213°
2026-04-20 18:13 55.83288 -4.14567 25356 ft 437 kts 213°
2026-04-20 18:14 55.80771 -4.17709 25355 ft 437 kts 213°
2026-04-20 18:14 55.78362 -4.21010 25351 ft 439 kts 224°
2026-04-20 18:14 55.76637 -4.25479 25353 ft 444 kts 245°
2026-04-20 18:14 55.75938 -4.30805 25355 ft 447 kts 267°
2026-04-20 18:15 55.76359 -4.36196 25349 ft 450 kts 288°
2026-04-20 18:15 55.77860 -4.41042 25340 ft 451 kts 309°
2026-04-20 18:15 55.80041 -4.45145 25335 ft 451 kts 311°
2026-04-20 18:15 55.81724 -4.49731 25328 ft 449 kts 291°
2026-04-20 18:16 55.82386 -4.55111 25345 ft 446 kts 270°
2026-04-20 18:16 55.82096 -4.60579 25340 ft 444 kts 255°
2026-04-20 18:16 55.81059 -4.65718 25321 ft 441 kts 240°
2026-04-20 18:16 55.79310 -4.70158 25316 ft 438 kts 225°
2026-04-20 18:17 55.76959 -4.73557 25316 ft 434 kts 208°
2026-04-20 18:17 55.74210 -4.75687 25319 ft 431 kts 194°
2026-04-20 18:17 55.71263 -4.76465 25317 ft 429 kts 179°
2026-04-20 18:17 55.68309 -4.75879 25272 ft 427 kts 167°
2026-04-20 18:18 55.65530 -4.73947 25065 ft 433 kts 151°
2026-04-20 18:18 55.63036 -4.70905 24920 ft 436 kts 145°
2026-04-20 18:18 55.60595 -4.67722 24779 ft 436 kts 145°
2026-04-20 18:18 55.58156 -4.64540 24625 ft 435 kts 145°
2026-04-20 18:19 55.55727 -4.61378 24486 ft 434 kts 145°
2026-04-20 18:19 55.53298 -4.58233 24358 ft 432 kts 145°
2026-04-20 18:19 55.50875 -4.55110 24218 ft 431 kts 145°
2026-04-20 18:19 55.48454 -4.52005 24076 ft 429 kts 145°
2026-04-20 18:20 55.46039 -4.48920 23937 ft 428 kts 146°
2026-04-20 18:20 55.43632 -4.45848 23745 ft 427 kts 145°
2026-04-20 18:20 55.41210 -4.42756 23540 ft 432 kts 146°
2026-04-20 18:20 55.38814 -4.39690 23379 ft 431 kts 146°
2026-04-20 18:21 55.36383 -4.36584 23203 ft 429 kts 146°
2026-04-20 18:21 55.33985 -4.33532 23036 ft 427 kts 146°
2026-04-20 18:21 55.31580 -4.30479 22864 ft 425 kts 146°
2026-04-20 18:21 55.29160 -4.27408 22690 ft 424 kts 146°
2026-04-20 18:22 55.26797 -4.24417 22523 ft 422 kts 145°
2026-04-20 18:22 55.24420 -4.21404 22348 ft 421 kts 145°
2026-04-20 18:22 55.22061 -4.18409 22189 ft 419 kts 145°
2026-04-20 18:22 55.19696 -4.15414 22026 ft 418 kts 145°
2026-04-20 18:23 55.17336 -4.12439 21851 ft 421 kts 146°
2026-04-20 18:23 55.14955 -4.09451 21690 ft 422 kts 146°
2026-04-20 18:23 55.12565 -4.06459 21535 ft 422 kts 146°
2026-04-20 18:23 55.10185 -4.03480 21369 ft 420 kts 145°
2026-04-20 18:24 55.07810 -4.00503 21196 ft 419 kts 145°
2026-04-20 18:24 55.05451 -3.97545 21046 ft 417 kts 145°
2026-04-20 18:24 55.03093 -3.94599 20886 ft 416 kts 145°
2026-04-20 18:24 55.00750 -3.91681 20734 ft 414 kts 145°
2026-04-20 18:25 54.98404 -3.88767 20576 ft 413 kts 145°
2026-04-20 18:25 54.96074 -3.85876 20397 ft 411 kts 145°
2026-04-20 18:25 54.93751 -3.82991 20289 ft 410 kts 145°
2026-04-20 18:25 54.91415 -3.80088 20316 ft 415 kts 144°
2026-04-20 18:26 54.89064 -3.77175 20325 ft 415 kts 144°
2026-04-20 18:26 54.86712 -3.74266 20318 ft 414 kts 144°
2026-04-20 18:26 54.84370 -3.71369 20317 ft 414 kts 144°
2026-04-20 18:26 54.82017 -3.68464 20320 ft 414 kts 144°
2026-04-20 18:27 54.79667 -3.65564 20326 ft 414 kts 144°
2026-04-20 18:27 54.77322 -3.62679 20324 ft 414 kts 144°
2026-04-20 18:27 54.74970 -3.59798 20326 ft 414 kts 144°
2026-04-20 18:27 54.72633 -3.56940 20315 ft 404 kts 144°
2026-04-20 18:28 54.70390 -3.54202 20311 ft 384 kts 144°
2026-04-20 18:28 54.68243 -3.51584 20313 ft 375 kts 144°
2026-04-20 18:28 54.66115 -3.48993 20317 ft 374 kts 144°
2026-04-20 18:28 54.63998 -3.46413 20313 ft 373 kts 144°
2026-04-20 18:29 54.61879 -3.43826 20326 ft 373 kts 144°
2026-04-20 18:29 54.59759 -3.41241 20330 ft 373 kts 144°
2026-04-20 18:29 54.57635 -3.38658 20324 ft 373 kts 144°
2026-04-20 18:29 54.55506 -3.36074 20322 ft 374 kts 144°
2026-04-20 18:30 54.53380 -3.33498 20325 ft 374 kts 145°
2026-04-20 18:30 54.51281 -3.30961 20326 ft 373 kts 145°
2026-04-20 18:30 54.49160 -3.28401 20325 ft 372 kts 145°
2026-04-20 18:30 54.47052 -3.25857 20092 ft 368 kts 145°
2026-04-20 18:31 54.44936 -3.23302 19599 ft 366 kts 144°
2026-04-20 18:31 54.42879 -3.20819 19102 ft 365 kts 144°
2026-04-20 18:31 54.40782 -3.18295 18649 ft 363 kts 144°
2026-04-20 18:31 54.38719 -3.15821 18177 ft 359 kts 144°
2026-04-20 18:32 54.36680 -3.13377 17706 ft 356 kts 144°
2026-04-20 18:32 54.34660 -3.10960 17247 ft 352 kts 144°
2026-04-20 18:32 54.32683 -3.08597 16796 ft 350 kts 144°
2026-04-20 18:32 54.30671 -3.06196 16341 ft 347 kts 144°
2026-04-20 18:33 54.28722 -3.03876 15907 ft 344 kts 144°
2026-04-20 18:33 54.26741 -3.01522 15455 ft 341 kts 144°
2026-04-20 18:33 54.24797 -2.99216 15039 ft 338 kts 144°
2026-04-20 18:33 54.22865 -2.96939 14626 ft 336 kts 144°
2026-04-20 18:34 54.20932 -2.94734 14214 ft 333 kts 146°
2026-04-20 18:34 54.18994 -2.92565 13680 ft 333 kts 146°
2026-04-20 18:34 54.17073 -2.90429 13188 ft 332 kts 146°
2026-04-20 18:34 54.15120 -2.88259 12731 ft 329 kts 146°
2026-04-20 18:35 54.13236 -2.86162 12297 ft 326 kts 146°
2026-04-20 18:35 54.11318 -2.84026 11850 ft 324 kts 146°
2026-04-20 18:35 54.09465 -2.81958 11410 ft 321 kts 146°
2026-04-20 18:35 54.07586 -2.79856 10977 ft 318 kts 146°
2026-04-20 18:36 54.05835 -2.77901 10575 ft 316 kts 146°
2026-04-20 18:36 54.04009 -2.75864 10153 ft 313 kts 146°
2026-04-20 18:36 54.02196 -2.73842 9690 ft 311 kts 146°
2026-04-20 18:36 54.00393 -2.71832 9221 ft 308 kts 146°
2026-04-20 18:37 53.98604 -2.69842 8746 ft 306 kts 146°
2026-04-20 18:37 53.96824 -2.67864 8286 ft 304 kts 146°
2026-04-20 18:37 53.95062 -2.65906 7867 ft 301 kts 146°
2026-04-20 18:37 53.93351 -2.64006 7727 ft 288 kts 147°
2026-04-20 18:38 53.91707 -2.62186 7578 ft 276 kts 147°
2026-04-20 18:38 53.90117 -2.60431 7395 ft 270 kts 146°
2026-04-20 18:38 53.88536 -2.58691 7324 ft 271 kts 146°
2026-04-20 18:38 53.86957 -2.56950 7330 ft 271 kts 146°
2026-04-20 18:39 53.85374 -2.55199 7332 ft 272 kts 146°
2026-04-20 18:39 53.83796 -2.53455 7332 ft 271 kts 146°
2026-04-20 18:39 53.82215 -2.51713 7331 ft 271 kts 146°
2026-04-20 18:39 53.80652 -2.50000 7333 ft 271 kts 146°
2026-04-20 18:40 53.79073 -2.48272 7332 ft 271 kts 146°
2026-04-20 18:40 53.77492 -2.46539 7332 ft 271 kts 146°
2026-04-20 18:40 53.75930 -2.44822 7332 ft 260 kts 146°
2026-04-20 18:40 53.74459 -2.43208 7332 ft 244 kts 146°
2026-04-20 18:41 53.73050 -2.41664 7337 ft 240 kts 146°
2026-04-20 18:41 53.71651 -2.40135 7335 ft 239 kts 146°
2026-04-20 18:41 53.70254 -2.38607 7327 ft 239 kts 146°
2026-04-20 18:41 53.68858 -2.37086 7330 ft 239 kts 148°
2026-04-20 18:42 53.67326 -2.35989 7328 ft 241 kts 165°
2026-04-20 18:42 53.65639 -2.35685 7330 ft 242 kts 181°
2026-04-20 18:42 53.64000 -2.36168 7331 ft 243 kts 194°
2026-04-20 18:42 53.62361 -2.36891 7331 ft 243 kts 194°
2026-04-20 18:43 53.60732 -2.37598 7333 ft 243 kts 193°
2026-04-20 18:43 53.59072 -2.38315 7336 ft 250 kts 193°
2026-04-20 18:43 53.57466 -2.39457 7328 ft 254 kts 217°
2026-04-20 18:43 53.56375 -2.41765 7329 ft 255 kts 248°
2026-04-20 18:44 53.55907 -2.44651 7337 ft 256 kts 259°
2026-04-20 18:44 53.55581 -2.47588 7331 ft 255 kts 260°
2026-04-20 18:44 53.55270 -2.50535 7325 ft 256 kts 260°
2026-04-20 18:44 53.54961 -2.53473 7320 ft 255 kts 260°
2026-04-20 18:45 53.54653 -2.56411 7325 ft 255 kts 260°
2026-04-20 18:45 53.54344 -2.59350 7321 ft 256 kts 259°
2026-04-20 18:45 53.54056 -2.62296 7324 ft 254 kts 259°
2026-04-20 18:45 53.53793 -2.65233 7322 ft 254 kts 260°
2026-04-20 18:46 53.53362 -2.68094 7301 ft 251 kts 242°
2026-04-20 18:46 53.52254 -2.70268 6975 ft 245 kts 211°
2026-04-20 18:46 53.50691 -2.71297 6645 ft 242 kts 193°
2026-04-20 18:46 53.49598 -2.71706 6398 ft 243 kts 191°
2026-04-20 18:47 53.47947 -2.72266 6310 ft 241 kts 190°
2026-04-20 18:47 53.46305 -2.72833 6311 ft 241 kts 190°
2026-04-20 18:47 53.44663 -2.73397 6313 ft 242 kts 189°
2026-04-20 18:47 53.43031 -2.73973 6100 ft 238 kts 190°
2026-04-20 18:48 53.41402 -2.74419 5726 ft 236 kts 176°
2026-04-20 18:48 53.39858 -2.73651 5389 ft 234 kts 147°
2026-04-20 18:48 53.38549 -2.72040 5050 ft 233 kts 141°
2026-04-20 18:48 53.37298 -2.70334 4985 ft 231 kts 140°
2026-04-20 18:49 53.36050 -2.68624 5001 ft 233 kts 140°
2026-04-20 18:49 53.34800 -2.66913 5001 ft 232 kts 140°
2026-04-20 18:49 53.33560 -2.65213 4860 ft 229 kts 140°
2026-04-20 18:49 53.32322 -2.63523 4491 ft 229 kts 140°
2026-04-20 18:50 53.31084 -2.61842 4131 ft 230 kts 140°
2026-04-20 18:50 53.29842 -2.60161 3785 ft 229 kts 140°
2026-04-20 18:50 53.28604 -2.58500 3499 ft 228 kts 140°
2026-04-20 18:50 53.27366 -2.56854 3164 ft 227 kts 140°
2026-04-20 18:51 53.26130 -2.55227 2998 ft 226 kts 140°
2026-04-20 18:51 53.24883 -2.53623 3003 ft 227 kts 140°
2026-04-20 18:51 53.23635 -2.52023 3001 ft 222 kts 140°
2026-04-20 18:51 53.22451 -2.50501 3000 ft 208 kts 140°
2026-04-20 18:52 53.21343 -2.49079 2999 ft 195 kts 140°
2026-04-20 18:52 53.20286 -2.47735 2905 ft 187 kts 140°
2026-04-20 18:52 53.19274 -2.46456 2994 ft 185 kts 140°
2026-04-20 18:52 53.18144 -2.45271 2994 ft 197 kts 160°
2026-04-20 18:53 53.16765 -2.45296 2998 ft 207 kts 197°
2026-04-20 18:53 53.15613 -2.46746 2998 ft 214 kts 234°
2026-04-20 18:53 53.15164 -2.49096 2997 ft 218 kts 271°
2026-04-20 18:53 53.15604 -2.51468 2997 ft 217 kts 308°
2026-04-20 18:54 53.16763 -2.52969 2996 ft 211 kts 345°
2026-04-20 18:54 53.18178 -2.53059 3002 ft 203 kts 20°
2026-04-20 18:54 53.19486 -2.52195 3005 ft 202 kts 29°
2026-04-20 18:54 53.20748 -2.51168 3010 ft 201 kts 30°
2026-04-20 18:55 53.21998 -2.50118 3022 ft 202 kts 30°
2026-04-20 18:55 53.23251 -2.49072 3004 ft 201 kts 30°
2026-04-20 18:55 53.24505 -2.48042 3005 ft 200 kts 30°
2026-04-20 18:55 53.25616 -2.46705 2713 ft 194 kts 53°
2026-04-20 18:56 53.26454 -2.44952 2409 ft 191 kts 54°
2026-04-20 18:56 53.27282 -2.43250 2135 ft 187 kts 54°
2026-04-20 18:56 53.28087 -2.41595 1873 ft 181 kts 55°
2026-04-20 18:56 53.28871 -2.39982 1626 ft 178 kts 54°
2026-04-20 18:57 53.29630 -2.38424 1410 ft 167 kts 55°
2026-04-20 18:57 53.30309 -2.37032 1159 ft 144 kts 56°
2026-04-20 18:57 53.30909 -2.35794 956 ft 134 kts 53°
2026-04-20 18:57 53.31486 -2.34601 765 ft 131 kts 54°
2026-04-20 18:58 53.32060 -2.33421 534 ft 131 kts 53°
2026-04-20 18:58 53.32647 -2.32249 424 ft 132 kts 53°
2026-04-20 18:58 53.33216 -2.31049 240 ft 131 kts 54°
2026-04-20 18:58 53.33694 -2.30025 236 ft 90 kts 51°
2026-04-20 18:59 53.34043 -2.29301 246 ft 69 kts 47°
2026-04-20 18:59 53.34300 -2.28786 251 ft 36 kts 49°
2026-04-20 18:59 53.34495 -2.28550 256 ft 33 kts 22°
2026-04-20 18:59 53.34650 -2.28442 260 ft 19 kts 22°
2026-04-20 19:00 53.34691 -2.28412 260 ft 5 kts 25°
2026-04-20 19:00 53.34716 -2.28390 261 ft 4 kts 29°
2026-04-20 19:00 53.34736 -2.28357 260 ft 7 kts 47°
2026-04-20 19:00 53.34767 -2.28300 260 ft 6 kts 50°
2026-04-20 19:01 53.34791 -2.28250 260 ft 5 kts 51°
2026-04-20 19:01 53.34810 -2.28208 260 ft 4 kts 54°
2026-04-20 19:01 53.34830 -2.28162 260 ft 9 kts 54°
2026-04-20 19:01 53.34878 -2.28060 260 ft 12 kts 51°
2026-04-20 19:02 53.34937 -2.27967 259 ft 9 kts
2026-04-20 19:02 53.34944 -2.27969 259 ft 0 kts 351°
2026-04-20 19:03 53.34946 -2.27969 259 ft 4 kts 351°
2026-04-20 19:03 53.35012 -2.28036 256 ft 14 kts 319°
2026-04-20 19:04 53.35081 -2.28131 255 ft 13 kts 322°
2026-04-20 19:04 53.35157 -2.28198 254 ft 12 kts 350°
2026-04-20 19:04 53.35234 -2.28193 254 ft 11 kts
2026-04-20 19:04 53.35304 -2.28184 254 ft 9 kts
2026-04-20 19:05 53.35366 -2.28172 254 ft 8 kts
2026-04-20 19:05 53.35421 -2.28162 254 ft 8 kts
2026-04-20 19:05 53.35437 -2.28158 254 ft 1 kts
2026-04-20 19:05 53.35475 -2.28139 253 ft 12 kts 22°
2026-04-20 19:06 53.35542 -2.28062 253 ft 11 kts 47°
2026-04-20 19:06 53.35565 -2.28020 252 ft 0 kts 47°
2026-04-20 19:09 53.35566 -2.28020 252 ft 1 kts 47°
2026-04-20 19:09 53.35573 -2.28007 252 ft 0 kts 46°
2026-04-20 19:10 53.35624 -2.27923 251 ft 15 kts 38°
2026-04-20 19:10 53.35699 -2.27768 249 ft 15 kts 55°
2026-04-20 19:10 53.35713 -2.27736 249 ft 0 kts 50°
2026-04-20 19:11 53.35749 -2.27679 248 ft 12 kts 24°
2026-04-20 19:11 53.35801 -2.27660 248 ft 0 kts
2026-04-20 19:11 53.35807 -2.27658 248 ft 7 kts 10°
2026-04-20 19:12 53.35917 -2.27639 247 ft 17 kts
2026-04-20 19:12 53.35998 -2.27603 246 ft 1 kts 29°
2026-04-20 19:12 53.36000 -2.27600 246 ft 1 kts 36°